This demonstration page uses our WeatherBlox Daily Observations layout. Learn more.

Left ArrowRight Arrow

40.92945, -100.16068

Hourly Observations for May 30, 2020

Temp ( °F °C ) Dew Point ( °F °C ) Humidity (%) Winds ( mph kmh ) Pressure ( in mb ) Visibility ( mi km ) Precip ( " mm )
12:15 am 00:15 Clear 60 15.8 51 10.7 72 72 ESE 8 13 30.15 1021 10 16.0934 0 0
12:35 am 00:35 Clear 60 15.5 51 10.8 74 74 E 6 9 30.14 1021 10 16.0934 0 0
12:55 am 00:55 Clear 59 15.2 51 10.8 75 75 ESE 8 13 30.14 1021 10 16.0934 0 0
1:15 am 01:15 Clear 60 15.5 51 10.8 74 74 ESE 7 11 30.13 1020 10 16.0934 0 0
1:35 am 01:35 Clear 60 15.3 52 10.9 75 75 ESE 7 11 30.13 1020 10 16.0934 0 0
1:55 am 01:55 Clear 59 15.2 51 10.8 75 75 ESE 7 11 30.13 1020 10 16.0934 0 0
2:15 am 02:15 Clear 58 14.7 51 10.8 78 78 ESE 7 11 30.13 1020 10 16.0934 0 0
2:35 am 02:35 Clear 58 14.7 51 10.7 77 77 E 7 11 30.14 1021 10 16.0934 0 0
2:55 am 02:55 Clear 58 14.5 51 10.7 78 78 E 7 11 30.14 1021 10 16.0934 0 0
3:15 am 03:15 Clear 57 14 51 10.6 80 80 ESE 7 11 30.14 1021 10 16.0934 0 0
3:35 am 03:35 Clear 58 14.4 51 10.4 77 77 ESE 7 11 30.14 1021 10 16.0934 0 0
3:55 am 03:55 Clear 58 14.5 51 10.4 77 77 E 5 7 30.14 1021 10 16.0934 0 0
4:15 am 04:15 Clear 56 13.5 51 10.6 83 83 Calm 30.17 1022 10 16.0934 0 0
4:35 am 04:35 Mostly Cloudy 56 13.6 52 11.3 86 86 W 5 7 30.17 1022 10 16.0934 0 0
4:55 am 04:55 Cloudy with Rain 57 14 53 11.7 86 86 SSW 5 7 30.14 1021 10 16.0934 0 0
5:15 am 05:15 Cloudy with Light Rain 57 13.9 54 12 88 88 S 7 11 30.14 1021 10 16.0934 0 0
5:35 am 05:35 Mostly Cloudy 57 14.1 54 12 87 87 SSE 9 15 30.1 1019 10 16.0934 0 0
5:55 am 05:55 Clear 58 14.7 53 11.5 81 81 ESE 7 11 30.1 1019 10 16.0934 0 0
6:15 am 06:15 Sunny 59 14.9 52 11 78 78 SE 10 17 30.09 1019 10 16.0934 0 0
6:35 am 06:35 Sunny 59 14.8 52 11 78 78 E 10 17 30.08 1019 10 16.0934 0 0
6:55 am 06:55 Sunny 58 14.7 52 10.9 78 78 ESE 8 13 30.08 1019 10 16.0934 0 0
7:15 am 07:15 Sunny 58 14.6 52 11 79 79 E 12 19 30.09 1019 10 16.0934 0 0
7:35 am 07:35 Mostly Cloudy 60 15.3 52 11 76 76 ESE 9 15 30.09 1019 10 16.0934 0 0
7:55 am 07:55 Partly Cloudy 59 15 51 10.8 76 76 ENE 13 20 30.13 1020 10 16.0934 0 0
8:15 am 08:15 Sunny 59 15 51 10.5 75 75 ENE 15 24 30.13 1020 10 16.0934 0 0
8:35 am 08:35 Sunny 60 15.7 51 10.6 72 72 ENE 12 19 30.14 1021 10 16.0934 0 0
8:55 am 08:55 Sunny 61 16.2 51 10.8 71 71 E 16 26 30.12 1020 10 16.0934 0 0
9:15 am 09:15 Sunny 61 16.1 51 10.5 70 70 E 15 24 30.13 1020 10 16.0934 0 0
9:35 am 09:35 Sunny 61 16.2 51 10.4 69 69 E 14 22 30.14 1021 10 16.0934 0 0
9:55 am 09:55 Sunny 63 17.4 52 11 66 66 E 16 26 30.13 1020 10 16.0934 0 0
10:15 am 10:15 Sunny 64 17.6 52 11.1 66 66 E 18 30 30.12 1020 10 16.0934 0 0
10:35 am 10:35 Sunny 64 17.7 52 10.9 65 65 E 15 24 30.12 1020 10 16.0934 0 0
10:55 am 10:55 Sunny 67 19.4 53 11.6 61 61 E 20 31 30.1 1019 10 16.0934 0 0
11:15 am 11:15 Sunny 67 19.7 53 11.6 60 60 E 18 30 30.1 1019 10 16.0934 0 0
11:35 am 11:35 Sunny 67 19.6 53 11.8 61 61 ESE 15 24 30.11 1019 10 16.0934 0 0
11:55 am 11:55 Sunny 67 19.7 53 11.8 60 60 ESE 16 26 30.09 1019 10 16.0934 0 0
12:15 pm 12:15 Sunny 68 20.2 53 11.9 59 59 ESE 20 31 30.09 1019 10 16.0934 0 0
12:35 pm 12:35 Sunny 69 20.6 54 12.3 59 59 ESE 18 30 30.08 1019 10 16.0934 0 0
12:55 pm 12:55 Sunny 71 21.8 55 12.9 57 57 ESE 16 26 30.07 1018 10 16.0934 0 0
1:15 pm 13:15 Sunny 72 22.4 56 13.4 57 57 ESE 14 22 30.05 1018 10 16.0934 0 0
1:35 pm 13:35 Sunny 73 22.7 56 13.4 56 56 ESE 17 28 30.06 1018 10 16.0934 0 0
1:55 pm 13:55 Partly Cloudy 73 22.7 56 13.5 56 56 ESE 16 26 30.06 1018 10 16.0934 0 0
2:15 pm 14:15 Mostly Cloudy 73 22.8 57 14 58 58 SE 13 20 30.05 1018 10 16.0934 0 0
2:35 pm 14:35 Cloudy 74 23.2 58 14.2 57 57 ESE 15 24 30.04 1017 10 16.0934 0 0
2:55 pm 14:55 Cloudy 74 23.4 58 14.4 57 57 E 15 24 30.04 1017 10 16.0934 0 0
3:15 pm 15:15 Cloudy 75 23.9 59 15.1 58 58 SE 13 20 30.03 1017 10 16.0934 0 0
3:35 pm 15:35 Cloudy 75 24 59 15.2 58 58 ESE 15 24 30.03 1017 10 16.0934 0 0
3:55 pm 15:55 Mostly Cloudy 75 23.7 59 14.9 58 58 E 17 28 30.03 1017 10 16.0934 0 0
4:15 pm 16:15 Partly Cloudy 75 23.9 58 14.7 56 56 ESE 16 26 30.02 1017 10 16.0934 0 0
4:35 pm 16:35 Sunny 75 24 59 14.9 57 57 E 17 28 30.02 1017 10 16.0934 0 0
4:55 pm 16:55 Sunny 75 23.8 58 14.5 56 56 ESE 16 26 30.02 1017 10 16.0934 0 0
5:15 pm 17:15 Sunny 75 23.9 58 14.5 56 56 E 22 35 30.01 1016 10 16.0934 0 0
5:35 pm 17:35 Sunny 74 23.6 58 14.5 57 57 E 16 26 30.01 1016 10 16.0934 0 0
5:55 pm 17:55 Sunny 74 23.5 57 14.1 56 56 E 15 24 30 1016 10 16.0934 0 0
6:15 pm 18:15 Sunny 74 23.2 57 13.9 56 56 E 16 26 30 1016 10 16.0934 0 0
6:35 pm 18:35 Sunny 74 23.1 57 14 57 57 E 18 30 30.01 1016 10 16.0934 0 0
6:55 pm 18:55 Sunny 73 22.7 56 13.5 56 56 E 17 28 30 1016 10 16.0934 0 0
7:15 pm 19:15 Sunny 73 22.7 56 13.3 55 55 E 22 35 30 1016 10 16.0934 0 0
7:35 pm 19:35 Sunny 73 22.5 56 13.1 55 55 ESE 21 33 30 1016 10 16.0934 0 0
7:55 pm 19:55 Sunny 72 22.1 56 13.3 58 58 E 16 26 30.01 1016 10 16.0934 0 0
8:15 pm 20:15 Sunny 70 20.9 54 12.3 58 58 E 15 24 30.03 1017 10 16.0934 0 0
8:35 pm 20:35 Sunny 68 20.1 54 12 60 60 E 18 30 30.04 1017 10 16.0934 0 0
8:55 pm 20:55 Sunny 67 19.5 54 12 62 62 E 17 28 30.06 1018 10 16.0934 0 0
9:15 pm 21:15 Clear 65 18.5 53 11.6 64 64 E 15 24 30.06 1018 10 16.0934 0 0
9:35 pm 21:35 Clear 64 18 53 11.7 67 67 E 17 28 30.08 1019 10 16.0934 0 0
9:55 pm 21:55 Clear 64 17.9 53 11.7 67 67 E 16 26 30.08 1019 10 16.0934 0 0
10:15 pm 22:15 Clear 64 17.5 53 11.7 69 69 E 16 26 30.09 1019 10 16.0934 0 0
10:35 pm 22:35 Clear 63 17.1 53 11.7 71 71 E 14 22 30.11 1020 10 16.0934 0 0
10:55 pm 22:55 Clear 63 17 53 11.6 71 71 E 14 22 30.11 1020 10 16.0934 0 0
11:15 pm 23:15 Clear 62 16.6 53 11.6 73 73 E 16 26 30.1 1019 10 16.0934 0 0
11:35 pm 23:35 Clear 61 16 53 11.7 76 76 E 14 22 30.12 1020 10 16.0934 0 0
11:55 pm 23:55 Clear 60 15.7 53 11.7 77 77 E 12 19 30.12 1020 10 16.0934 0 0

Powered by AerisWeather